Time,TemperatureF,DewpointF,PressureIn,WindDirection,WindDirectionDegrees,WindSpeedMPH,WindSpeedGustMPH,Humidity,HourlyPrecipIn,Conditions,Clouds,dailyrainin,SolarRadiationWatts/m^2,SoftwareType,DateUTC
2013-11-10 00:03:00,49.0,48.0,-100.00,NNE,25,0.0,4.0,96,0.00,,,0.00,0.000000,,2013-11-10 05:03:00,
2013-11-10 00:13:00,49.0,48.0,-100.00,NNE,25,0.0,4.0,96,0.00,,,0.00,0.000000,,2013-11-10 05:13:00,
2013-11-10 00:44:00,49.0,48.0,-100.00,North,353,1.0,4.0,97,0.00,,,0.00,0.000000,,2013-11-10 05:44:00,
2013-11-10 00:54:00,49.0,48.0,-100.00,North,353,1.0,4.0,97,0.00,,,0.00,0.000000,,2013-11-10 05:54:00,
2013-11-10 01:02:00,49.0,48.0,-100.00,North,353,1.0,4.0,97,0.00,,,0.00,0.000000,,2013-11-10 06:02:00,
2013-11-10 01:13:00,49.0,48.0,-100.00,North,353,1.0,4.0,97,0.00,,,0.00,0.000000,,2013-11-10 06:13:00,
2013-11-10 01:42:00,53.0,50.0,-100.00,West,265,1.0,3.0,89,0.00,,,0.00,0.000000,,2013-11-10 06:42:00,
2013-11-10 01:52:00,53.0,50.0,-100.00,West,265,1.0,3.0,89,0.00,,,0.00,0.000000,,2013-11-10 06:52:00,
2013-11-10 02:02:00,53.0,50.0,-100.00,West,265,1.0,3.0,89,0.00,,,0.00,0.000000,,2013-11-10 07:02:00,
2013-11-10 02:12:00,53.0,50.0,-100.00,West,265,1.0,3.0,89,0.00,,,0.00,0.000000,,2013-11-10 07:12:00,
2013-11-10 02:43:00,52.0,49.0,-100.00,West,280,1.0,2.0,89,0.00,,,0.00,0.000000,,2013-11-10 07:43:00,
2013-11-10 02:52:00,52.0,49.0,-100.00,West,280,1.0,2.0,89,0.00,,,0.00,0.000000,,2013-11-10 07:52:00,
2013-11-10 03:02:00,52.0,49.0,-100.00,West,280,1.0,2.0,89,0.00,,,0.00,0.000000,,2013-11-10 08:02:00,
2013-11-10 03:12:00,52.0,49.0,-100.00,West,280,1.0,2.0,89,0.00,,,0.00,0.000000,,2013-11-10 08:12:00,
2013-11-10 03:43:00,48.0,47.0,-100.00,WNW,297,0.0,3.0,95,0.00,,,0.00,0.000000,,2013-11-10 08:43:00,
2013-11-10 03:53:00,48.0,47.0,-100.00,WNW,297,0.0,3.0,95,0.00,,,0.00,0.000000,,2013-11-10 08:53:00,
2013-11-10 04:02:00,48.0,47.0,-100.00,WNW,297,0.0,3.0,95,0.00,,,0.00,0.000000,,2013-11-10 09:02:00,
2013-11-10 04:12:00,48.0,47.0,-100.00,WNW,297,0.0,3.0,95,0.00,,,0.00,0.000000,,2013-11-10 09:12:00,
2013-11-10 04:43:00,46.0,46.0,-100.00,South,182,0.0,2.0,99,0.00,,,0.00,0.000000,,2013-11-10 09:43:00,
2013-11-10 04:53:00,46.0,46.0,-100.00,South,182,0.0,2.0,99,0.00,,,0.00,0.000000,,2013-11-10 09:53:00,
2013-11-10 05:03:00,46.0,46.0,-100.00,South,182,0.0,2.0,99,0.00,,,0.00,0.000000,,2013-11-10 10:03:00,
2013-11-10 05:13:00,46.0,46.0,-100.00,South,182,0.0,2.0,99,0.00,,,0.00,0.000000,,2013-11-10 10:13:00,
2013-11-10 05:42:00,43.0,43.0,-100.00,South,176,0.0,0.0,99,0.00,,,0.00,0.000000,,2013-11-10 10:42:00,
2013-11-10 05:53:00,43.0,43.0,-100.00,South,176,0.0,0.0,99,0.00,,,0.00,0.000000,,2013-11-10 10:53:00,
2013-11-10 06:03:00,43.0,43.0,-100.00,South,176,0.0,0.0,99,0.00,,,0.00,0.000000,,2013-11-10 11:03:00,
2013-11-10 06:12:00,43.0,43.0,-100.00,South,176,0.0,0.0,99,0.00,,,0.00,0.000000,,2013-11-10 11:12:00,
2013-11-10 06:43:00,43.0,43.0,-100.00,South,173,0.0,0.0,99,0.00,,,0.00,0.000000,,2013-11-10 11:43:00,
2013-11-10 06:52:00,43.0,43.0,-100.00,South,173,0.0,0.0,99,0.00,,,0.00,0.000000,,2013-11-10 11:52:00,
2013-11-10 07:02:00,43.0,43.0,-100.00,South,173,0.0,0.0,99,0.00,,,0.00,0.000000,,2013-11-10 12:02:00,
2013-11-10 07:12:00,43.0,43.0,-100.00,South,173,0.0,0.0,99,0.00,,,0.00,0.000000,,2013-11-10 12:12:00,
2013-11-10 10:12:00,55.0,46.0,-100.00,WSW,258,4.0,7.0,71,-99.99,,,0.00,256.000000,,2013-11-10 15:12:00,
2013-11-10 10:43:00,62.0,42.0,-100.00,East,82,5.0,11.0,48,0.00,,,0.00,553.000000,,2013-11-10 15:43:00,
2013-11-10 10:54:00,62.0,42.0,-100.00,East,82,5.0,11.0,48,0.00,,,0.00,553.000000,,2013-11-10 15:54:00,
2013-11-10 11:03:00,62.0,42.0,-100.00,East,82,5.0,11.0,48,0.00,,,0.00,553.000000,,2013-11-10 16:03:00,
2013-11-10 11:12:00,62.0,42.0,-100.00,East,82,5.0,11.0,48,0.00,,,0.00,553.000000,,2013-11-10 16:12:00,
2013-11-10 11:42:00,65.0,38.0,-100.00,East,83,5.0,12.0,37,0.00,,,0.00,721.000000,,2013-11-10 16:42:00,
2013-11-10 11:53:00,65.0,38.0,-100.00,East,83,5.0,12.0,37,0.00,,,0.00,721.000000,,2013-11-10 16:53:00,
2013-11-10 12:02:00,65.0,38.0,-100.00,East,83,5.0,12.0,37,0.00,,,0.00,721.000000,,2013-11-10 17:02:00,
2013-11-10 12:12:00,65.0,38.0,-100.00,East,83,5.0,12.0,37,0.00,,,0.00,721.000000,,2013-11-10 17:12:00,
2013-11-10 12:43:00,68.0,41.0,-100.00,ENE,60,3.0,9.0,37,0.00,,,0.00,663.000000,,2013-11-10 17:43:00,
2013-11-10 12:52:00,68.0,41.0,-100.00,ENE,60,3.0,9.0,37,0.00,,,0.00,663.000000,,2013-11-10 17:52:00,
2013-11-10 13:03:00,68.0,41.0,-100.00,ENE,60,3.0,9.0,37,0.00,,,0.00,663.000000,,2013-11-10 18:03:00,
2013-11-10 13:13:00,68.0,41.0,-100.00,ENE,60,3.0,9.0,37,0.00,,,0.00,663.000000,,2013-11-10 18:13:00,
2013-11-10 13:42:00,69.0,40.0,-100.00,East,79,4.0,10.0,35,0.00,,,0.00,693.000000,,2013-11-10 18:42:00,
2013-11-10 13:52:00,69.0,40.0,-100.00,East,79,4.0,10.0,35,0.00,,,0.00,693.000000,,2013-11-10 18:52:00,
2013-11-10 14:02:00,69.0,40.0,-100.00,East,79,4.0,10.0,35,0.00,,,0.00,693.000000,,2013-11-10 19:02:00,
2013-11-10 14:11:00,69.0,40.0,-100.00,East,79,4.0,10.0,35,0.00,,,0.00,693.000000,,2013-11-10 19:11:00,
2013-11-10 14:42:00,70.0,41.0,-100.00,East,79,4.0,10.0,35,0.00,,,0.00,620.000000,,2013-11-10 19:42:00,
2013-11-10 14:52:00,70.0,41.0,-100.00,East,79,4.0,10.0,35,0.00,,,0.00,620.000000,,2013-11-10 19:52:00,
2013-11-10 15:02:00,70.0,41.0,-100.00,East,79,4.0,10.0,35,0.00,,,0.00,620.000000,,2013-11-10 20:02:00,
2013-11-10 15:11:00,70.0,41.0,-100.00,East,79,4.0,10.0,35,0.00,,,0.00,620.000000,,2013-11-10 20:11:00,
2013-11-10 15:43:00,70.0,43.0,-100.00,ENE,70,4.0,11.0,37,0.00,,,0.00,458.000000,,2013-11-10 20:43:00,
2013-11-10 15:53:00,70.0,43.0,-100.00,ENE,70,4.0,11.0,37,0.00,,,0.00,458.000000,,2013-11-10 20:53:00,
2013-11-10 16:02:00,70.0,43.0,-100.00,ENE,70,4.0,11.0,37,0.00,,,0.00,458.000000,,2013-11-10 21:02:00,
2013-11-10 16:11:00,70.0,43.0,-100.00,ENE,70,4.0,11.0,37,0.00,,,0.00,458.000000,,2013-11-10 21:11:00,
2013-11-10 16:43:00,67.0,42.0,-100.00,ENE,66,3.0,8.0,40,0.00,,,0.00,56.000000,,2013-11-10 21:43:00,
2013-11-10 16:55:00,67.0,42.0,-100.00,ENE,66,3.0,8.0,40,0.00,,,0.00,56.000000,,2013-11-10 21:55:00,
2013-11-10 17:04:00,67.0,42.0,-100.00,ENE,66,3.0,8.0,40,0.00,,,0.00,56.000000,,2013-11-10 22:04:00,
2013-11-10 17:13:00,67.0,42.0,-100.00,ENE,66,3.0,8.0,40,0.00,,,0.00,56.000000,,2013-11-10 22:13:00,
2013-11-10 17:43:00,59.0,45.0,-100.00,NE,47,0.0,4.0,59,0.00,,,0.00,14.000000,,2013-11-10 22:43:00,
2013-11-10 17:54:00,59.0,45.0,-100.00,NE,47,0.0,4.0,59,0.00,,,0.00,14.000000,,2013-11-10 22:54:00,
2013-11-10 18:03:00,59.0,45.0,-100.00,NE,47,0.0,4.0,59,0.00,,,0.00,14.000000,,2013-11-10 23:03:00,
2013-11-10 18:12:00,59.0,45.0,-100.00,NE,47,0.0,4.0,59,0.00,,,0.00,14.000000,,2013-11-10 23:12:00,
2013-11-10 18:43:00,54.0,47.0,-100.00,SE,140,2.0,3.0,78,0.00,,,0.00,0.000000,,2013-11-10 23:43:00,
2013-11-10 18:53:00,54.0,47.0,-100.00,SE,140,2.0,3.0,78,0.00,,,0.00,0.000000,,2013-11-10 23:53:00,
2013-11-10 19:02:00,54.0,47.0,-100.00,SE,140,2.0,3.0,78,0.00,,,0.00,0.000000,,2013-11-11 00:02:00,
2013-11-10 19:11:00,54.0,47.0,-100.00,SE,140,2.0,3.0,78,0.00,,,0.00,0.000000,,2013-11-11 00:11:00,
2013-11-10 19:42:00,52.0,47.0,-100.00,SSW,192,1.0,3.0,84,0.00,,,0.00,0.000000,,2013-11-11 00:42:00,
2013-11-10 19:52:00,52.0,47.0,-100.00,SSW,192,1.0,3.0,84,0.00,,,0.00,0.000000,,2013-11-11 00:52:00,
2013-11-10 20:02:00,52.0,47.0,-100.00,SSW,192,1.0,3.0,84,0.00,,,0.00,0.000000,,2013-11-11 01:02:00,
2013-11-10 20:11:00,52.0,47.0,-100.00,SSW,192,1.0,3.0,84,0.00,,,0.00,0.000000,,2013-11-11 01:11:00,
2013-11-10 20:42:00,49.0,46.0,-100.00,South,183,0.0,2.0,90,0.00,,,0.00,0.000000,,2013-11-11 01:42:00,
2013-11-10 20:52:00,49.0,46.0,-100.00,South,183,0.0,2.0,90,0.00,,,0.00,0.000000,,2013-11-11 01:52:00,
2013-11-10 21:02:00,49.0,46.0,-100.00,South,183,0.0,2.0,90,0.00,,,0.00,0.000000,,2013-11-11 02:02:00,
2013-11-10 21:11:00,49.0,46.0,-100.00,South,183,0.0,2.0,90,0.00,,,0.00,0.000000,,2013-11-11 02:11:00,
2013-11-10 21:42:00,47.0,45.0,-100.00,SW,224,0.0,0.0,92,0.00,,,-99.99,0.000000,,2013-11-11 02:42:00,
2013-11-10 21:52:00,47.0,45.0,-100.00,SW,224,0.0,0.0,92,0.00,,,-99.99,0.000000,,2013-11-11 02:52:00,
2013-11-10 22:02:00,47.0,45.0,-100.00,SW,224,0.0,0.0,92,0.00,,,-99.99,0.000000,,2013-11-11 03:02:00,
2013-11-10 22:12:00,47.0,45.0,-100.00,SW,224,0.0,0.0,92,0.00,,,-99.99,0.000000,,2013-11-11 03:12:00,
2013-11-10 22:44:00,45.0,44.0,-100.00,South,187,0.0,3.0,95,0.00,,,0.00,0.000000,,2013-11-11 03:44:00,
2013-11-10 22:55:00,45.0,44.0,-100.00,South,187,0.0,3.0,95,0.00,,,0.00,0.000000,,2013-11-11 03:55:00,
2013-11-10 23:04:00,45.0,44.0,-100.00,South,187,0.0,3.0,95,0.00,,,0.00,0.000000,,2013-11-11 04:04:00,
2013-11-10 23:14:00,45.0,44.0,-100.00,South,187,0.0,3.0,95,0.00,,,0.00,0.000000,,2013-11-11 04:14:00,
2013-11-10 23:43:00,44.0,42.0,-100.00,NNW,329,1.0,4.0,92,0.00,,,0.00,0.000000,,2013-11-11 04:43:00,
2013-11-10 23:53:00,44.0,42.0,-100.00,NNW,329,1.0,4.0,92,0.00,,,0.00,0.000000,,2013-11-11 04:53:00,